EDT,Max TemperatureF,Mean TemperatureF,Min TemperatureF,Max Dew PointF,MeanDew PointF,Min DewpointF,Max Humidity, Mean Humidity, Min Humidity, Max Sea Level PressureIn, Mean Sea Level PressureIn, Min Sea Level PressureIn, Max VisibilityMiles, Mean VisibilityMiles, Min VisibilityMiles, Max Wind SpeedMPH, Mean Wind SpeedMPH, Max Gust SpeedMPH,PrecipitationIn, CloudCover, Events, WindDirDegrees
2012-10-1,62,46,30,52,44,28,93,83,63,29.95,29.88,29.83,10,9,0,14,3,18,0.00,0,Fog,211
2012-10-2,64,54,42,52,48,39,94,82,56,29.98,29.92,29.86,10,8,0,10,3,,0.00,4,Fog,349
2012-10-3,64,52,39,55,47,37,94,85,68,30.00,29.98,29.96,10,5,0,9,2,,0.00,3,Fog,122
2012-10-4,66,55,44,59,50,36,94,84,47,29.99,29.90,29.79,10,6,0,14,3,22,0.00,6,Fog,198
2012-10-5,51,45,39,34,28,27,65,52,38,29.91,29.89,29.84,10,10,10,16,10,25,0.00,4,,261
2012-10-6,68,50,33,64,33,27,93,81,57,30.12,29.97,29.82,10,9,4,18,10,26,0.00,7,Rain,300
2012-10-7,51,40,30,34,27,19,93,63,30,30.11,30.05,29.98,10,10,10,13,5,20,0.00,4,,264
2012-10-8,55,45,35,45,34,19,72,57,39,29.99,29.92,29.80,10,10,7,25,10,37,0.00,4,Rain,209
2012-10-9,55,47,39,46,43,36,93,84,58,29.80,29.73,29.65,10,9,4,25,17,34,0.00,7,Rain,214
2012-10-10,44,38,33,36,29,21,93,71,39,30.03,29.86,29.71,10,10,7,21,9,26,0.00,5,Rain,275
2012-10-11,48,40,33,39,33,25,93,74,46,30.20,29.98,29.83,10,9,2,20,7,34,0.00,6,Rain-Snow,272
2012-10-12,48,37,26,34,27,21,93,68,37,30.42,30.34,30.21,10,10,2,15,6,20,0.00,1,Snow,255
2012-10-13,50,44,39,48,42,34,94,85,66,30.27,29.98,29.75,10,8,2,20,7,28,0.00,6,Rain,200
2012-10-14,48,46,42,46,44,39,93,91,87,29.78,29.61,29.42,10,8,1,22,8,31,0.00,8,Rain,1
2012-10-15,44,37,30,39,36,28,93,80,66,29.93,29.77,29.52,10,10,7,17,12,26,0.00,7,Rain,328
2012-10-16,53,40,28,48,41,27,94,86,77,29.93,29.77,29.60,10,10,7,16,5,22,0.00,5,Rain,176
2012-10-17,60,54,48,54,50,46,93,83,77,29.59,29.47,29.39,10,10,4,14,8,20,0.00,3,Rain,136
2012-10-18,57,52,46,54,49,43,94,89,82,29.54,29.34,29.22,10,9,3,18,12,26,0.00,8,Rain,159
2012-10-19,51,48,44,46,43,39,93,83,67,29.62,29.58,29.54,10,10,5,16,11,22,0.00,7,Rain,102
2012-10-20,60,48,35,46,40,34,93,79,45,29.84,29.71,29.60,10,9,0,13,5,17,0.00,4,Fog,340
2012-10-21,57,44,32,48,40,30,93,82,54,30.01,29.96,29.84,10,8,0,10,3,18,0.00,0,Fog,215
2012-10-22,57,49,41,52,47,39,94,87,77,30.04,30.01,29.98,10,7,0,13,2,,0.00,6,Fog,30
2012-10-23,55,52,48,48,47,45,88,81,72,30.02,29.99,29.96,10,10,3,18,11,26,0.00,7,Rain,82
2012-10-24,57,54,51,55,52,48,94,92,88,29.98,29.91,29.80,10,4,1,16,11,22,0.00,8,Rain,110
2012-10-25,62,53,42,57,54,39,94,88,81,29.80,29.66,29.52,10,8,2,22,10,31,0.00,7,Rain,197
2012-10-26,46,38,30,39,30,25,87,70,46,30.29,30.13,29.81,10,10,10,18,9,25,0.00,3,,276
2012-10-27,42,32,23,27,22,16,93,67,34,30.34,30.29,30.27,10,10,10,13,4,18,0.00,4,,312
2012-10-28,48,36,24,28,24,21,86,67,37,30.37,30.34,30.31,10,10,10,13,5,16,0.00,3,,336
2012-10-29,44,35,26,28,24,16,93,66,31,30.34,30.29,30.15,10,10,10,18,8,29,0.00,0,,347
2012-10-30,39,36,33,32,28,23,87,72,52,30.13,29.91,29.78,10,9,7,31,21,46,0.00,5,Rain-Snow,352
2012-10-31,39,36,33,36,32,30,93,86,75,29.77,29.72,29.69,10,8,2,21,15,31,0.00,8,Rain-Snow,338